Regional Weather Roundup
Issued by NWS

Home | Current Version | Previous Version | Text Only | Print | Product List | Glossary On
Versions: 1 2 3 4 5 6 7 8 9 10 11 12 13 14 15 16 17 18 19 20 21 22 23 24 25 26 27 28
000
ASUS45 KPSR 260710
RWRAZ

ARIZONA HOURLY REGIONAL WEATHER ROUNDUP
NATIONAL WEATHER SERVICE PHOENIX AZ
1200 AM MST FRI AUG 26 2016

NOTE: FAIR INDICATES FEW OR NO CLOUDS BELOW 12,000 FEET WITH NO
SIGNIFICANT WEATHER AND/OR OBSTRUCTIONS TO VISIBILITY.

AZZ001>003-036-260800-
NORTHWEST ARIZONA

CITY           SKY/WX    TMP DP  RH WIND       PRES   REMARKS
BULLHEAD CITY  FAIR      95  48  20 S9        29.76S
KINGMAN        FAIR      73  55  53 SE5       29.98S
$$

AZZ004>008-015-016-018-260800-
NORTH CENTRAL ARIZONA

CITY           SKY/WX    TMP DP  RH WIND       PRES   REMARKS
GRAND CANYON     N/A    N/A N/A N/A MISG      30.33R THUNDER
PRESCOTT       RAIN      59  57  93 S13       30.21S
FLAGSTAFF      CLOUDY    51  50  96 SW7       30.32R
PAGE           FAIR      64  56  75 N6        30.20R
$$

AZZ009>014-017-260800-
NORTHEAST ARIZONA

CITY           SKY/WX    TMP DP  RH WIND       PRES   REMARKS
WINSLOW        FAIR      57  50  77 W3        30.23F
SAINT JOHNS    CLOUDY    61  50  67 VRB5      30.24F
WINDOW ROCK    MOCLDY    56  49  77 NW7       30.31S
$$

AZZ023-260800-
GREATER PHOENIX AREA

CITY           SKY/WX    TMP DP  RH WIND       PRES   REMARKS
PHOENIX        FAIR      93  57  29 W12       29.83S
LUKE AFB       FAIR      88  55  32 N3        29.84S
DEER VALLEY    FAIR      85  55  35 NW5       29.87R
SCOTTSDALE     FAIR      86  57  37 CALM      29.88S
MESA-GATEWAY   PTCLDY    88  55  33 VRB5        N/A
$$

AZZ027-028-260800-
SOUTHWEST MARICOPA COUNTY AND PINAL COUNTY

CITY           SKY/WX    TMP DP  RH WIND       PRES   REMARKS
CASA GRANDE    MOCLDY    88  54  31 S10       29.91R
GILA BEND      FAIR      89  52  28 SE5       29.83S
$$

AZZ503-504-507>509-260800-
SOUTHEAST ARIZONA

CITY           SKY/WX    TMP DP  RH WIND       PRES   REMARKS
TUCSON         FAIR      82  59  45 SE5       30.01S
DAVIS-MONTHAN  FAIR      80  59  49 VRB3      30.00R
NOGALES        FAIR      69  57  65 SE7       30.11F
SIERRA VISTA   CLOUDY    69  50  50 N6        30.15S
DOUGLAS        FAIR      65  55  70 SE7       30.11F
SAFFORD        FAIR      76  57  51 NE6       30.00F
$$

AZZ020-021-025-026-031-260800-
SOUTHWEST ARIZONA

CITY           SKY/WX    TMP DP  RH WIND       PRES   REMARKS
YUMA           FAIR      85  74  69 SE12      29.78S
$$

CAZ031-033-041-043-047-048-061-260800-
SOUTHERN CALIFORNIA

CITY           SKY/WX    TMP DP  RH WIND       PRES   REMARKS
DOWNTOWN L.A.  CLOUDY    67  60  78 W3        29.92S
L.A. AIRPORT   CLOUDY    66  59  78 NW5       29.93R
SAN DIEGO      CLOUDY    67  59  75 W6        29.94F
BURBANK        CLOUDY    64  59  83 S6        29.93R
ONTARIO        FAIR      64  58  80 W7        29.93R
RIVERSIDE      FAIR      65  58  78 W7        29.93R
PALM SPRINGS   FAIR      87  46  24 W3        29.80R
EL CENTRO NAS  FAIR      84  61  45 SE6       29.77S
IMPERIAL       FAIR      87  72  60 SE7       29.76R
BLYTHE         FAIR      91  61  36 S12       29.79S
NEEDLES        FAIR      95  49  20 SW15      29.78S
$$

NVZ020-UTZ003-260800-
SOUTHERN NEVADA-UTAH

CITY           SKY/WX    TMP DP  RH WIND       PRES   REMARKS
LAS VEGAS      FAIR      89  31  12 SW9       29.81R
SALT LAKE CITY FAIR      69  32  25 S8        30.03R
$$

NMZ009-TXZ055-260800-
NEW MEXICO-WEST TEXAS

CITY           SKY/WX    TMP DP  RH WIND       PRES   REMARKS
ALBUQUERQUE    CLOUDY    69  47  45 N17       30.21R
EL PASO        MOCLDY    71  56  58 E3        30.11S
$$


........................KEY........................
SKY/WX - SKY CONDITION/WEATHER
TMP    - TEMPERATURE IN FAHRENHEIT
DP     - DEW POINT IN FAHRENHEIT
RH     - RELATIVE HUMIDITY IN PERCENT
WIND   - DIRECTION AND SPEED IN MILES PER HOUR (MPH)
VRB    - VARIABLE WIND DIRECTION
PRES   - MEAN SEA LEVEL PRESSURE IN INCHES OF MERCURY
         F - FALLING PRESSURE   R - RISING PRESSURE
         S - STEADY PRESSURE
VSB    - VISIBILITY IN MILES
HX     - HEAT INDEX IN FAHRENHEIT
WCI    - WIND CHILL INDEX IN FAHRENHEIT
TC     - TEMPERATURE IN CELSIUS WHICH IS ALSO KNOWN AS
         TEMPERATURE IN CENTIGRADE
AFB    - AIR FORCE BASE
         LUKE AFB IS LUKE AIR FORCE BASE
         DAVIS-MONTHAN IS DAVIS-MONTHAN AIR FORCE BASE
NAS    - NAVAL AIR STATION
         EL CENTRO NAS IS EL CENTRO NAVAL AIR STATION
N/A    - NOT AVAILABLE





USA.gov is the U.S. government's official web portal to all federal, state and local government web resources and services.